Regional Weather Roundup
Issued by NWS Upton, NY

Current Version | Previous Version | Graphics & Text | Print | Product List | Glossary On
Versions: 1 2 3 4 5 6 7 8 9 10 11 12 13 14 15 16 17 18 19 20 21 22 23 24 25 26 27 28 29 30 31 32 33 34 35 36 37 38 39 40 41 42 43 44 45 46 47 48 49 50
000
ASUS41 KOKX 271514
RWROKX

Regional Weather Roundup
National Weather Service New York NY
1000 AM EST THU FEB 27 2020

Note: "FAIR" indicates few or no clouds below 12,000 feet with no
significant weather and/or obstructions to visibility.

NYZ071-072-176-178-NJZ106-104-271600-
New York City Metro Area

CITY           SKY/WX    TMP DP  RH WIND       PRES   REMARKS
Central Park   CLOUDY    40  24  53 W12G31    29.51R WCI  33
Bronx Lehman C   N/A     39  27  60 W18G40      N/A  WCI  30
LaGuardia Arpt PTSUNNY   41  24  51 W31G43    29.48R
Queens College   N/A     39  25  56 W25G44      N/A  WCI  28
Kennedy Intl   PTSUNNY   42  28  57 W32G47    29.49R
Breezy Point     N/A     39 N/A N/A W22G39      N/A  WCI  29
Brooklyn Coll    N/A     39  27  60 W21G35      N/A  WCI  29
Staten Island    N/A     37  27  65 W22         N/A  WCI  27
Newark/Liberty PTSUNNY   40  25  55 W32G40    29.51R WCI  28
Teterboro      CLOUDY    40  27  59 W23G35    29.48R WCI  30
$$

NYZ177-179-078>081-271600-
Long Island New York

CITY           SKY/WX    TMP DP  RH WIND       PRES   REMARKS
Jones Beach      N/A     39 N/A N/A W29G39      N/A  WCI  28
Wantagh          N/A     41  28  60 W29G43      N/A
Hempstead        N/A     41  30  65 SW22      29.51
Matinecock Pt    N/A     41 N/A N/A W33G43      N/A
Farmingdale    CLOUDY    43  27  53 W22G38    29.45R
MacArthur/ISP  PTSUNNY   43  30  60 W23G38    29.43R
Stony Brook      N/A     41  32  70 W17G36      N/A
Shirley        PTSUNNY   45  30  55 W22G33    29.42R
Mt Sinai Harb    N/A    N/A N/A N/A W14G25      N/A
Westhampton    FAIR      45  32  60 W29G38    29.41R
East Hampton   CLOUDY    45  35  67 W22G29    29.38R
Southold         N/A     45  34  65 W14G28      N/A
Montauk          N/A     46  35  65 W17G32    29.38R
$$

NYZ052-065-067-271600-
Hudson Valley

CITY           SKY/WX    TMP DP  RH WIND       PRES   REMARKS
White Plains   CLOUDY    38  29  70 W17G33    29.43R WCI  28
Larchmont Harb   N/A     39 N/A N/A W26G38      N/A  WCI  28
Croton On Huds   N/A     39 N/A N/A W25G36      N/A  WCI  28
Somers           N/A     37  28  70 W15         N/A  WCI  28
Brewster         N/A     37  32  81 NW14        N/A  WCI  29
Newburgh       PTSUNNY   37  30  75 W28G39    29.42R WCI  25
Montgomery     CLOUDY    36  25  64 W23G38    29.43R WCI  24
Otisville        N/A     34  27  75 W15G29      N/A  WCI  24
Warwick          N/A     36  28  75 W25G37      N/A  WCI  23
Suffern          N/A     36  30  80 W10G22      N/A  WCI  28
Poughkeepsie   CLOUDY    40  30  67 W12G23    29.42R WCI  33
Albany         PTSUNNY   36  26  67 W18G28    29.37R WCI  26
$$

NJZ001-105-106-008-010-013-015-019>022-104-271600-
New Jersey

CITY           SKY/WX    TMP DP  RH WIND       PRES   REMARKS
Newark/Liberty PTSUNNY   40  25  55 W32G40    29.51R WCI  28
Teterboro      CLOUDY    40  27  59 W23G35    29.48R WCI  30
Caldwell       CLOUDY    41  23  48 W18G39    29.51R
Somerville     CLOUDY    38  24  57 W10G26    29.55R WCI  31
Linden         CLOUDY    38  26  60 W20G31    29.53R WCI  28
Perth Amboy      N/A     37 N/A N/A W31G39      N/A  WCI  25
Sussex         FLURRIES  35  25  66 W10G23    29.50R WCI  27
Andover          N/A     35  22  58 VRB3G20   29.52R
Trenton        PTSUNNY   37  21  52 W20G29    29.59R WCI  27
Millville      FAIR      40  19  43 W20G38    29.67R WCI  30
Atlantic City  FAIR      42  22  44 W29G48    29.61R
Wrightstown    FAIR      39  21  48 W26G36    29.58R WCI  28
Toms River     PTSUNNY   41  25  53 W24G36    29.58R
Belmar         PTSUNNY   39  22  50 W29G49    29.54R WCI  27
$$

PAZ047>061-062-071-271600-
Eastern Pennsylvania

CITY           SKY/WX    TMP DP  RH WIND       PRES   REMARKS
Philadelphia   FAIR      39  18  42 W24G39    29.66R WCI  28
Allentown      PTSUNNY   37  20  50 W18G35    29.59R WCI  27
Scranton       CLOUDY    31  20  63 NW15      29.55R WCI  20
$$

CTZ002-004>006-009-010-012-RIZ004-006-007-MAZ004-011-015-271600-
Southern New England

 In CT

CITY           SKY/WX    TMP DP  RH WIND       PRES   REMARKS
Bradley Intl   PTSUNNY   46  37  71 W29G37    29.28R
Hartford       PTSUNNY   46  35  65 W16G36    29.32R
Danbury        CLOUDY    39  30  70 W17G25    29.41R WCI  30
Wtrbury/Oxford PTSUNNY   40  33  76 W17G32    29.35R WCI  31
Norwalk Harbor   N/A     39 N/A N/A W24G33      N/A  WCI  28
Bridgeport     PTSUNNY   45  31  58 W24G39    29.39R
Meriden        LGT RAIN  44  32  62 W18G39    29.34R
New Haven      PTSUNNY   45  35  68 W13G29    29.37R
Chester        CLOUDY    45  36  70 W12G23    29.33R
Groton         CLOUDY    43  38  82 W25G36    29.33R
Willimantic    CLOUDY    44  36  73 W14G26    29.31R

 In RI

CITY           SKY/WX    TMP DP  RH WIND       PRES   REMARKS
Providence     PTSUNNY   48  42  80 W21G36    29.27R
Block Island   FAIR      45  37  73 W30G38    29.35R
Westerly       PTSUNNY   46  36  68 SW25G39   29.33R

In MA

CITY           SKY/WX    TMP DP  RH WIND       PRES   REMARKS
Boston         CLOUDY    51  47  86 S20G31    29.18
Worcester      CLOUDY    44  41  89 SW28G40   29.19R
Westfield      CLOUDY    42  34  73 W24G33    29.28R
Provincetown   LGT RAIN  48  48 100 S14G22    29.25F
Nantucket      LGT RAIN  46  43  89 SW29G37   29.35R FOG
$$

ANZ330-335-338-340-345-350-353-355-271600-
Coastal Marine Observations


STATION/POSITION TIME  SKY/WX   TEMP    WIND        PRES    VSBY  WAVE
                                AIR SEA DIR/SP/G                  HT/PER
                 (UTC)          (F)     (DEG/KT/KT) (MB)    (MI)  (FT/S)
NY Harb Entrance 1450            40     270/ 29/ 39  999.1          7/ 5
20 S Fire Island 1450            42 44               997.8         10/ 7
Great South Bay  NOT AVBL
23 SSW Montauk P NOT AVBL
15 E Barnegat Li 1430               44                N/A           7/ 6
Hudson Canyon    1450            43 45              1000.3         10/ 7
Kings Point      1430            40 42  310/ 25/ 33  998.0
Execution Rocks  1445            41 32  250/ 23/ 33   N/A
Western LI Sound 1420            41     260/ 23/ 31   N/A           3/ 4
Central LI Sound NOT AVBL
Robbins Reef     1430            39     290/ 31/ 42  998.6
$$


>>>>>>>>>>>>>>>>>>>>>>>>>>>> KEY <<<<<<<<<<<<<<<<<<<<<<<<<<<
>                                                          <
>     SKY/WX - Sky Condition/Present Weather               <
>     TMP    - Temperature in Fahrenheit                   <
>     DP     - Dew Point in Fahrenheit                     <
>     RH     - Relative Humidity in Percent                <
>     WIND   - Direction (from) and Speed in MPH           <
>     PRES   - Mean Sea Level Pressure (inches of Hg)      <
>     WCI    - Wind Chill Index                            <
>     VSB    - Visibility in Miles                         <
>     HX     - Heat Index                                  <
>     TC     - Temperature in Celsius                      <
>     VRB    - Variable Wind Direction                     <
>                                                          <
>>>>>>>>>>>>>>>>>>>>>>>>>>>> KEY <<<<<<<<<<<<<<<<<<<<<<<<<<<



USA.gov is the U.S. government's official web portal to all federal, state and local government web resources and services.